Location: Red Rock Canyon
(36.1333°N, 115.4333°W)
Time: 19:47:13
(UTC-07:00)

ISS - Visible Passes

Search period start: 20 April 2014 00:00
Search period end: 30 April 2014 00:00
Orbit: 414 x 419 km, 51.6° (Epoch: 20 April)

Date Brightness Start Highest point End Pass type
(mag) Time Alt. Az. Time Alt. Az. Time Alt. Az.
20 Apr -0.7 20:01:50 10° N 20:03:10 12° NNE 20:04:30 10° NE visible
20 Apr -1.3 21:37:06 10° NW 21:38:54 29° NW 21:38:54 29° NW visible
21 Apr -2.4 20:48:43 10° NNW 20:51:51 36° NE 20:52:20 34° ENE visible
22 Apr -1.5 20:00:23 10° NNW 20:03:07 23° NNE 20:05:46 10° E visible
22 Apr -1.2 21:36:48 10° WNW 21:38:40 26° W 21:38:40 26° W visible
23 Apr -3.2 20:47:57 10° NW 20:51:17 72° SW 20:52:05 47° SSE visible
24 Apr -3.0 19:59:13 10° NW 20:02:32 59° NE 20:05:30 12° ESE visible
24 Apr -0.4 21:37:43 10° WSW 21:38:24 11° WSW 21:38:24 11° WSW visible
25 Apr -1.2 20:47:36 10° WNW 20:50:12 21° SW 20:51:50 15° SSW visible
26 Apr -2.2 19:58:16 10° WNW 20:01:26 40° SW 20:04:34 10° SSE visible
28 Apr -0.5 19:58:13 10° W 19:59:50 13° SW 20:01:27 10° SSW visible
